Вернуться в каталог

DELTA 1 DEB

АктивенSSO
NORAD 13530·DEBRIS·🇺🇸 United States

Запущен Jul 29, 1976 с Vandenberg Space Force Base

Loading…

Ближайшие Пролёты (ближайшие 24 часа)

TLE

СвежийSource: Space-Track

Эпоха: Sep 13, 2026, 21:13 UTC

1 13530U 76077EC  26256.88428036  .00000639  00000-0  51663-2 0  9990
2 13530 102.3387   5.1091 0126368 199.9202 286.3779 12.37344840 73415

Отслеживайте DELTA 1 DEB в реальном времени с AllMySat

Download on the App Store